Weather reports worldwide

Advertisment
Sevilla/San Pablo, Spain (8391): temperature & dewpoint: 22.03.2020 22:00:00 - 28.03.2020 22:00:00 (CET)Sevilla/San Pablo, Spain (8391): wind speed: 22.03.2020 22:00:00 - 28.03.2020 22:00:00 (CET)Sevilla/San Pablo, Spain (8391): wind direction: 22.03.2020 22:00:00 - 28.03.2020 22:00:00 (CET)Sevilla/San Pablo, Spain (8391): reduced air pressure: 22.03.2020 22:00:00 - 28.03.2020 22:00:00 (CET)Sevilla/San Pablo, Spain (8391): visibility: 22.03.2020 22:00:00 - 28.03.2020 22:00:00 (CET)
Date & Time tt [°C] td [°C] ff [km/h] ff [kn] dd ppp [hPa] vv [km]
28.03.2020 22:00:00 15,9 8,1 13 7 SW 1018,4 30
28.03.2020 21:00:00 17,0 9,2 18 10 SW 1017,5 -
28.03.2020 20:00:00 19,1 6,2 9 5 WNW 1016,4 -
28.03.2020 19:00:00 20,3 5,5 0 0 N 1015,9 30
28.03.2020 18:00:00 20,8 5,2 4 2 SW 1015,5 -
28.03.2020 17:00:00 20,3 6,0 8 4 SW 1015,3 -
28.03.2020 16:00:00 20,5 6,2 8 4 SSW 1015,4 30
28.03.2020 15:00:00 19,3 7,2 8 4 SW 1015,7 -
28.03.2020 14:00:00 19,3 7,1 8 4 SW 1016,1 -
28.03.2020 13:00:00 19,0 7,7 11 6 SSE 1016,3 30
28.03.2020 12:00:00 17,4 8,7 11 6 ESE 1016,4 -
28.03.2020 11:00:00 15,6 8,1 11 6 ENE 1016,7 -
28.03.2020 10:00:00 13,3 7,0 11 6 E 1016,5 30
28.03.2020 09:00:00 11,4 6,0 18 10 E 1015,7 -
28.03.2020 08:00:00 10,0 6,0 21 11 ENE 1015,0 -
28.03.2020 07:00:00 9,6 6,1 11 6 E 1014,3 30
28.03.2020 06:00:00 9,8 6,5 13 7 ENE 1013,8 -
28.03.2020 05:00:00 9,9 8,3 5 3 E 1013,6 -
28.03.2020 04:00:00 9,9 8,5 8 4 NNE 1013,5 30
28.03.2020 03:00:00 10,7 8,8 5 3 NE 1013,5 -
28.03.2020 02:00:00 11,2 8,8 8 4 S 1013,6 -
28.03.2020 01:00:00 12,2 10,1 8 4 ESE 1013,6 30
28.03.2020 00:00:00 12,2 9,8 8 4 SE 1013,2 -
27.03.2020 23:00:00 13,0 9,6 4 2 ESE 1012,8 -
27.03.2020 22:00:00 13,8 9,5 8 4 SSW 1012,3 25
27.03.2020 21:00:00 14,2 9,4 5 3 SSW 1011,5 -
27.03.2020 20:00:00 14,9 8,8 18 10 SW 1010,4 -
27.03.2020 19:00:00 17,0 6,9 24 13 SW 1009,8 25
27.03.2020 18:00:00 18,7 6,2 13 7 SSW 1009,3 -
27.03.2020 17:00:00 19,1 5,9 15 8 SW 1009,0 -
27.03.2020 16:00:00 18,5 6,3 16 9 WSW 1009,1 25
27.03.2020 15:00:00 17,9 5,9 16 9 SSW 1009,5 -
27.03.2020 14:00:00 17,3 6,8 16 9 SW 1010,1 -
27.03.2020 13:00:00 15,8 7,6 18 10 SW 1010,5 20
27.03.2020 12:00:00 13,2 7,0 11 6 SW 1011,3 -
27.03.2020 11:00:00 12,2 7,5 13 7 S 1011,1 -
27.03.2020 10:00:00 10,8 8,5 9 5 SSW 1010,7 15
27.03.2020 09:00:00 9,4 9,4 9 5 S 1009,8 -
27.03.2020 08:00:00 9,0 9,0 9 5 SSW 1009,3 -
27.03.2020 07:00:00 8,9 8,9 13 7 SW 1009,1 20
27.03.2020 06:00:00 9,7 8,8 11 6 S 1008,8 -
27.03.2020 05:00:00 9,9 8,7 8 4 SSW 1008,5 -
27.03.2020 04:00:00 10,4 8,5 0 0 N 1008,8 30
27.03.2020 03:00:00 11,7 9,1 2 1 WNW 1009,3 -
27.03.2020 02:00:00 13,3 9,2 13 7 W 1009,8 -
27.03.2020 01:00:00 13,6 9,0 15 8 WNW 1009,8 30
27.03.2020 00:00:00 14,7 8,6 15 8 W 1010,1 -
26.03.2020 23:00:00 15,6 8,1 11 6 WNW 1010,2 -
26.03.2020 22:00:00 17,0 7,3 15 8 W 1010,0 30
26.03.2020 21:00:00 18,1 6,7 16 9 W 1009,5 -
26.03.2020 20:00:00 19,5 6,9 22 12 W 1008,8 -
26.03.2020 19:00:00 21,6 6,5 31 17 W 1008,6 30
26.03.2020 18:00:00 22,7 5,5 34 18 W 1008,3 -
26.03.2020 17:00:00 23,8 5,3 35 19 W 1008,3 -
26.03.2020 16:00:00 23,9 4,6 28 15 WSW 1008,6 30
26.03.2020 15:00:00 23,2 6,7 16 9 WSW 1009,2 -
26.03.2020 14:00:00 21,4 10,4 15 8 SW 1010,3 -
26.03.2020 13:00:00 19,2 11,0 11 6 SW 1011,4 30
26.03.2020 12:00:00 17,2 11,6 8 4 SW 1012,3 -
26.03.2020 11:00:00 15,2 12,0 4 2 WNW 1013,0 -
26.03.2020 10:00:00 14,0 12,0 8 4 SSW 1012,9 15
26.03.2020 09:00:00 13,4 11,8 11 6 SSW 1012,9 -
26.03.2020 08:00:00 12,8 10,9 15 8 SSW 1012,9 -
26.03.2020 07:00:00 12,9 10,6 15 8 SW 1012,9 15
26.03.2020 06:00:00 12,9 10,3 15 8 SSW 1013,1 -
26.03.2020 05:00:00 12,9 10,4 13 7 SSW 1013,3 -
26.03.2020 04:00:00 13,1 10,5 15 8 SSW 1013,6 25
26.03.2020 03:00:00 13,8 10,8 16 9 SW 1014,5 -
26.03.2020 02:00:00 14,4 12,6 13 7 SSW 1015,2 -
26.03.2020 01:00:00 14,7 12,4 11 6 WSW 1015,5 30
26.03.2020 00:00:00 14,5 12,0 13 7 WSW 1015,9 -
25.03.2020 23:00:00 14,7 12,0 13 7 SW 1016,2 -
25.03.2020 22:00:00 15,0 11,4 9 5 SSW 1016,0 30
25.03.2020 21:00:00 16,0 11,2 16 9 WSW 1015,5 -
25.03.2020 20:00:00 17,2 11,0 22 12 WSW 1015,0 -
25.03.2020 19:00:00 18,3 11,5 24 13 SW 1014,4 20
25.03.2020 18:00:00 19,5 11,5 24 13 SW 1014,2 -
25.03.2020 17:00:00 20,5 10,8 16 9 SW 1014,4 -
25.03.2020 16:00:00 19,8 10,7 16 9 SW 1014,7 30
25.03.2020 15:00:00 19,7 9,7 15 8 SW 1015,3 -
25.03.2020 14:00:00 19,8 9,4 11 6 W 1016,0 -
25.03.2020 13:00:00 18,2 9,2 8 4 NNW 1017,0 30
25.03.2020 12:00:00 17,4 9,0 8 4 NW 1017,2 -
25.03.2020 11:00:00 16,3 10,3 5 3 W 1017,1 -
25.03.2020 10:00:00 14,4 9,0 4 2 NE 1016,8 30
25.03.2020 09:00:00 13,9 8,9 9 5 NNE 1016,3 -
25.03.2020 08:00:00 13,3 10,1 8 4 NNW 1016,0 -
25.03.2020 07:00:00 13,6 9,3 9 5 NNE 1015,5 30
25.03.2020 06:00:00 14,1 9,0 8 4 NE 1015,2 -
25.03.2020 05:00:00 14,1 9,1 9 5 SE 1014,6 -
25.03.2020 04:00:00 14,3 9,7 9 5 E 1014,4 30
25.03.2020 03:00:00 14,1 10,5 5 3 E 1014,5 -
25.03.2020 02:00:00 14,4 10,4 9 5 E 1014,3 -
25.03.2020 01:00:00 14,4 10,2 9 5 E 1014,0 30
25.03.2020 00:00:00 14,9 14,3 4 2 NE 1013,7 -
24.03.2020 23:00:00 15,5 13,5 4 2 SSE 1013,1 -
24.03.2020 22:00:00 16,8 12,9 8 4 S 1012,2 30
24.03.2020 21:00:00 18,0 13,1 8 4 N 1011,3 -
24.03.2020 20:00:00 18,7 12,7 8 4 W 1010,4 -
24.03.2020 19:00:00 20,0 9,8 2 1 N 1009,8 30
24.03.2020 18:00:00 20,5 10,6 8 4 ENE 1009,5 -
24.03.2020 17:00:00 20,6 8,9 18 10 ENE 1009,0 -
24.03.2020 16:00:00 20,7 9,3 16 9 ENE 1009,0 30
24.03.2020 15:00:00 20,5 9,0 18 10 ENE 1009,1 -
24.03.2020 14:00:00 19,4 8,5 24 13 ENE 1009,7 -
24.03.2020 13:00:00 18,8 9,3 26 14 E 1010,1 30
24.03.2020 12:00:00 17,9 9,1 26 14 ENE 1010,1 -
24.03.2020 11:00:00 16,9 8,9 26 14 ENE 1009,9 -
24.03.2020 10:00:00 15,1 9,8 16 9 NNE 1009,9 25
24.03.2020 09:00:00 12,0 11,4 9 5 ENE 1010,0 -
24.03.2020 08:00:00 10,7 10,4 8 4 NE 1009,7 -
24.03.2020 07:00:00 10,4 10,2 8 4 NE 1009,5 25
24.03.2020 06:00:00 10,1 10,1 8 4 NNE 1009,4 -
24.03.2020 05:00:00 10,4 10,4 9 5 NNE 1009,6 -
24.03.2020 04:00:00 10,7 10,7 11 6 NE 1009,9 20
24.03.2020 03:00:00 11,4 11,2 11 6 NNE 1010,5 -
24.03.2020 02:00:00 12,0 10,6 11 6 NE 1011,3 -
24.03.2020 01:00:00 12,1 10,8 9 5 N 1011,9 20
24.03.2020 00:00:00 12,2 10,3 9 5 E 1012,1 -
23.03.2020 23:00:00 12,6 9,6 11 6 ENE 1012,2 -
23.03.2020 22:00:00 13,5 9,5 22 12 ENE 1011,8 30
23.03.2020 21:00:00 14,2 8,2 18 10 ENE 1011,6 -
23.03.2020 20:00:00 15,4 8,5 15 8 E 1010,8 -
23.03.2020 19:00:00 16,4 10,3 11 6 E 1010,1 30
23.03.2020 18:00:00 17,2 9,3 21 11 E 1009,7 -
23.03.2020 17:00:00 19,3 7,5 16 9 E 1009,6 -
23.03.2020 16:00:00 18,1 7,7 16 9 NE 1009,9 30
23.03.2020 15:00:00 17,7 8,8 16 9 ENE 1010,4 -
23.03.2020 14:00:00 17,4 8,4 13 7 ENE 1011,5 -
23.03.2020 13:00:00 17,0 9,9 16 9 NE 1012,4 30
23.03.2020 12:00:00 16,0 9,7 16 9 ENE 1012,9 -
23.03.2020 11:00:00 15,1 10,5 16 9 ENE 1013,5 -
23.03.2020 10:00:00 12,8 10,6 15 8 NE 1013,6 30
23.03.2020 09:00:00 11,1 11,1 8 4 ENE 1013,3 -
23.03.2020 08:00:00 9,6 9,6 5 3 ESE 1012,9 -
23.03.2020 07:00:00 9,3 9,3 8 4 NNE 1012,6 30
23.03.2020 06:00:00 9,5 9,5 5 3 N 1012,5 -
23.03.2020 05:00:00 9,7 9,7 4 2 ENE 1012,2 -
23.03.2020 04:00:00 9,9 9,9 4 2 NE 1012,1 30
23.03.2020 03:00:00 10,6 10,6 8 4 N 1012,4 -
23.03.2020 02:00:00 11,4 10,0 2 1 ENE 1012,8 -
23.03.2020 01:00:00 12,0 9,9 5 3 E 1012,9 30
23.03.2020 00:00:00 12,0 10,6 8 4 NE 1013,0 -
22.03.2020 23:00:00 11,7 11,1 5 3 NNW 1012,9 -
22.03.2020 22:00:00 11,3 9,6 5 3 SE 1012,8 25

tt = temperature
td = dewpoint
ff = wind speed
dd = wind direction
ppp = reduced air pressure
vv = visibility

Next stations